Flag for India Weather past 2 weeks in Lucknow, Uttar Pradesh, India

Now
57 °F

Fog.


Feels Like: 57 °F
Forecast: 51 / 69 °F
Wind: No wind

Location: Lucknow / Amausi

Current Time: Jan 28, 2015 at 3:30:02 AM

Latest Report: Jan 28, 2015 at 1:00 AM


Visibility: 0 mi

Pressure: 30.04 "Hg

Humidity: 94%

Dew point: 55 °F

Location of LucknowLocation

Historic Weather in Lucknow — Graph

°F

Lucknow temperature yesterday

Maximum temperature yesterday: 70 °F (at 12:30 PM)
Minimum temperature yesterday: 55 °F (at 7:00 AM)
Average temperature yesterday: 61 °F

Past Weeks' High & Low Weather Summary

 TemperatureHumidityPressure
High135 °F (Jan 24, 6:30 PM)100% (Jan 13, 3:00 AM)30.39 "Hg (Jan 13, 3:00 AM)
Low45 °F (Jan 13, 6:30 AM)8% (Jan 24, 6:30 PM)29.98 "Hg (Jan 13, 4:30 PM)
Average56 °F84%30.09 "Hg
* Reported Jan 13 1:00 AM — Jan 28 1:00 AM, Lucknow, Weather by CustomWeather, © 2014

Note: Actual official high and low records may vary slightly from our data, if they occured in-between our weather recording intervals... More about our weather records

Advertising

Lucknow weather history for previous 24 hours

 ConditionsComfort  
Time TempWeatherWind HumidityBarometerVisibility
1:00 AM
Jan 28
57 °FFog.No wind94%30.04 "Hg1 mi
12:00 AM59 °FFog.No wind94%30.04 "Hg1 mi
11:00 PM
Jan 27
59 °FFog.No wind94%30.04 "Hg1 mi
10:00 PM59 °FFog.No wind94%30.04 "Hg1 mi
9:00 PM61 °FFog.No wind88%30.04 "Hg1 mi
8:30 PM61 °FFog.No wind94%30.01 "Hg1 mi
8:00 PM61 °FFog.No wind88%30.01 "Hg1 mi
7:30 PM63 °FFog.No wind83%30.01 "Hg1 mi
6:30 PM64 °FPassing clouds.No wind83%30.01 "Hg1 mi
6:00 PM66 °FScattered clouds.No wind83%30.01 "Hg1 mi
5:00 PM70 °FScattered clouds.2 mph69%29.98 "Hg1 mi
4:00 PM70 °FBroken clouds.6 mph64%30.01 "Hg1 mi
1:00 PM70 °FHaze.2 mph69%30.07 "Hg1 mi
12:30 PM70 °FHaze.2 mph69%30.07 "Hg1 mi
11:30 AM68 °FPartly sunny.2 mph73%30.09 "Hg1 mi
10:00 AM63 °FFog.2 mph88%30.12 "Hg1 mi
9:30 AM61 °FFog.2 mph94%30.09 "Hg1 mi
8:00 AM57 °FFog.No wind94%30.07 "Hg1 mi
7:30 AM55 °FFog.No wind100%30.07 "Hg0 mi
7:00 AM55 °FFog.No wind100%30.07 "Hg0 mi
6:00 AM57 °FFog.No wind94%30.04 "Hg0 mi
5:30 AM57 °FFog.No wind94%30.04 "Hg0 mi
5:00 AM57 °FFog.No wind94%30.04 "Hg0 mi
4:00 AM57 °FFog.No wind94%30.04 "Hg1 mi
3:00 AM57 °FFog.No wind94%30.04 "Hg1 mi
Weather by CustomWeather, © 2014

See weather overviewHow to use our weather pages